QPF
0.07 0.05 0.03 0.01 0.01 0.02 0.03 0.03 0.02 0.02 0.02 0.03 0.03 0.02 0.02 0.02 0.01 0.01 0.01 0.01 0.02 0.02 0.03 0.03 0.02 0.01 0.02 0.02 0.02 0.01 0.01 0.01 0.01 0.01 0.01 0.01 0.01 0.01 0.02 0.02 0.01 0.01 0.02
0.11 0.07 0.03 0.02 0.01 0.02 0.03 0.03 0.03 0.02 0.02 0.02 0.03 0.03 0.02 0.02 0.02 0.01 0.01 0.02 0.02 0.02 0.02 0.03 0.02 0.01 0.02 0.02 0.01 0.01 0.01 0.01 0.01 0.01 0.01 0.01 0.01 0.01 0.01 0.01 0.02 0.01 0.01
0.14 0.13 0.09 0.05 0.03 0.03 0.04 0.04 0.03 0.03 0.03 0.02 0.03 0.04 0.04 0.03 0.04 0.03 0.02 0.02 0.03 0.02 0.02 0.02 0.02 0.01 0.01 0.02 0.02 0.01 0.01 0.01 0.01 0.01 0.01 0.01 0.01 0.01 0.01 0.01 0.02 0.02 0.02
0.10 0.15 0.14 0.10 0.06 0.05 0.06 0.06 0.05 0.05 0.05 0.04 0.04 0.04 0.05 0.04 0.03 0.03 0.03 0.03 0.03 0.02 0.02 0.02 0.02 0.01 0.01 0.02 0.02 0.01 0.01 0.01 0.01 0.01 0.01 0.01 0.01 0.01 0.01 0.01 0.01 0.02 0.02
0.06 0.12 0.18 0.13 0.09 0.07 0.06 0.07 0.07 0.06 0.07 0.06 0.05 0.04 0.04 0.03 0.03 0.03 0.03 0.03 0.03 0.03 0.03 0.02 0.01 0.01 0.01 0.01 0.02 0.02 0.01 0.01 0.01 0.01 0.01 0.01 0.01 0.01 0.01 0.01 0.01 0.02 0.02
0.06 0.06 0.12 0.17 0.12 0.08 0.06 0.06 0.09 0.09 0.07 0.07 0.06 0.06 0.05 0.03 0.02 0.03 0.05 0.05 0.04 0.03 0.03 0.02 0.02 0.01 0.01 0.01 0.03 0.03 0.02 0.02 0.01 0.01 0.01 0.01 0.01 0.01 0.01 0.02 0.02 0.02 0.02
0.06 0.05 0.06 0.10 0.13 0.13 0.09 0.07 0.07 0.09 0.08 0.07 0.06 0.06 0.06 0.05 0.03 0.03 0.05 0.06 0.06 0.04 0.03 0.02 0.02 0.01 0.01 0.01 0.02 0.03 0.03 0.03 0.02 0.02 0.01 0.01 0.01 0.02 0.02 0.02 0.02 0.02 0.02
0.04 0.04 0.04 0.05 0.09 0.13 0.12 0.09 0.08 0.09 0.08 0.06 0.05 0.04 0.05 0.06 0.05 0.04 0.06 0.07 0.08 0.07 0.05 0.03 0.02 0.01 0.01 0.00 0.01 0.02 0.03 0.03 0.03 0.02 0.02 0.02 0.02 0.02 0.02 0.02 0.02 0.02 0.03
0.04 0.03 0.03 0.04 0.06 0.08 0.10 0.12 0.11 0.10 0.10 0.07 0.04 0.04 0.04 0.05 0.06 0.05 0.07 0.08 0.08 0.10 0.10 0.06 0.04 0.02 0.02 0.01 0.01 0.02 0.03 0.03 0.03 0.03 0.03 0.04 0.03 0.03 0.03 0.03 0.03 0.03 0.03
0.04 0.03 0.03 0.03 0.04 0.05 0.06 0.09 0.12 0.11 0.11 0.10 0.07 0.05 0.04 0.03 0.04 0.05 0.07 0.10 0.09 0.09 0.11 0.10 0.07 0.04 0.02 0.02 0.02 0.02 0.02 0.03 0.02 0.03 0.03 0.04 0.04 0.03 0.04 0.04 0.03 0.03 0.03
0.03 0.03 0.02 0.02 0.03 0.05 0.04 0.04 0.07 0.09 0.10 0.10 0.08 0.05 0.04 0.04 0.03 0.04 0.05 0.08 0.09 0.09 0.08 0.09 0.08 0.06 0.03 0.01 0.01 0.01 0.01 0.01 0.02 0.02 0.02 0.04 0.05 0.03 0.03 0.03 0.03 0.03 0.03
0.04 0.03 0.02 0.01 0.02 0.04 0.04 0.03 0.05 0.06 0.08 0.11 0.10 0.07 0.05 0.05 0.04 0.04 0.05 0.06 0.07 0.08 0.08 0.07 0.07 0.06 0.04 0.02 0.01 0.01 0.01 0.01 0.01 0.01 0.01 0.01 0.02 0.02 0.03 0.03 0.03 0.03 0.04
0.05 0.04 0.03 0.02 0.02 0.03 0.04 0.03 0.04 0.06 0.06 0.09 0.12 0.09 0.07 0.06 0.05 0.04 0.06 0.07 0.06 0.06 0.07 0.07 0.06 0.05 0.04 0.02 0.01 0.01 0.01 0.01 0.01 0.01 0.01 0.01 0.01 0.01 0.01 0.02 0.03 0.03 0.03
0.05 0.05 0.05 0.04 0.03 0.04 0.05 0.05 0.04 0.06 0.07 0.07 0.10 0.10 0.09 0.08 0.07 0.06 0.05 0.06 0.08 0.06 0.05 0.05 0.05 0.04 0.04 0.03 0.02 0.01 0.01 0.01 0.01 0.01 0.01 0.01 0.01 0.01 0.01 0.02 0.02 0.02 0.02
0.05 0.05 0.05 0.04 0.04 0.04 0.04 0.05 0.04 0.05 0.07 0.06 0.08 0.08 0.07 0.07 0.07 0.07 0.05 0.04 0.05 0.05 0.04 0.03 0.03 0.03 0.03 0.03 0.02 0.02 0.01 0.01 0.01 0.01 0.01 0.01 0.01 0.01 0.01 0.01 0.01 0.02 0.02
0.06 0.05 0.04 0.04 0.04 0.04 0.05 0.05 0.05 0.04 0.06 0.05 0.06 0.06 0.06 0.05 0.06 0.07 0.06 0.05 0.03 0.03 0.02 0.01 0.01 0.02 0.02 0.02 0.02 0.01 0.01 0.01 0.01 0.01 0.01 0.01 0.01 0.01 0.02 0.01 0.01 0.02 0.02
0.06 0.05 0.04 0.04 0.04 0.04 0.05 0.05 0.04 0.03 0.04 0.05 0.05 0.06 0.06 0.06 0.05 0.06 0.05 0.05 0.04 0.03 0.02 0.01 0.01 0.01 0.01 0.01 0.01 0.00 0.00 0.00 0.00 0.01 0.01 0.01 0.01 0.01 0.02 0.02 0.01 0.01 0.01
0.07 0.06 0.05 0.04 0.04 0.04 0.06 0.05 0.04 0.03 0.04 0.04 0.05 0.05 0.07 0.08 0.06 0.05 0.04 0.03 0.03 0.03 0.02 0.02 0.01 0.01 0.01 0.00 0.00 0.00 0.00 0.00 0.00 0.01 0.01 0.01 0.01 0.01 0.01 0.02 0.01 0.01 0.01
0.06 0.06 0.05 0.04 0.03 0.04 0.05 0.05 0.04 0.03 0.03 0.04 0.05 0.05 0.06 0.08 0.08 0.06 0.03 0.02 0.02 0.02 0.02 0.02 0.02 0.01 0.01 0.01 0.00 0.00 0.00 0.00 0.00 0.01 0.01 0.01 0.01 0.01 0.01 0.01 0.01 0.01 0.01
0.05 0.06 0.06 0.05 0.04 0.04 0.04 0.04 0.04 0.03 0.02 0.03 0.04 0.04 0.04 0.06 0.08 0.08 0.05 0.03 0.02 0.02 0.01 0.02 0.02 0.01 0.01 0.01 0.01 0.01 0.01 0.01 0.01 0.01 0.01 0.01 0.01 0.00 0.01 0.01 0.01 0.00 0.01
0.05 0.05 0.05 0.06 0.05 0.05 0.05 0.03 0.03 0.03 0.03 0.03 0.03 0.03 0.03 0.04 0.06 0.08 0.08 0.05 0.02 0.02 0.01 0.01 0.01 0.01 0.01 0.01 0.01 0.01 0.01 0.01 0.01 0.01 0.01 0.00 0.00 0.00 0.00 0.00 0.00 0.00 0.01
0.04 0.04 0.03 0.04 0.05 0.05 0.04 0.04 0.03 0.02 0.02 0.03 0.03 0.03 0.02 0.03 0.05 0.06 0.09 0.08 0.04 0.02 0.01 0.01 0.01 0.01 0.01 0.01 0.01 0.01 0.01 0.01 0.01 0.01 0.00 0.00 0.00 0.00 0.00 0.00 0.00 0.01 0.01
0.04 0.03 0.03 0.03 0.04 0.05 0.05 0.04 0.03 0.02 0.02 0.02 0.02 0.03 0.03 0.03 0.04 0.04 0.06 0.08 0.06 0.03 0.01 0.01 0.01 0.01 0.01 0.01 0.01 0.01 0.01 0.01 0.01 0.00 0.00 0.00 0.00 0.00 0.00 0.00 0.00 0.01 0.01
0.04 0.03 0.04 0.04 0.03 0.05 0.05 0.05 0.04 0.03 0.02 0.02 0.02 0.02 0.02 0.02 0.03 0.04 0.05 0.06 0.06 0.04 0.02 0.01 0.01 0.01 0.01 0.01 0.01 0.01 0.01 0.01 0.00 0.00 0.00 0.00 0.00 0.00 0.00 0.00 0.00 0.00 0.01
0.04 0.03 0.03 0.04 0.04 0.04 0.05 0.05 0.04 0.03 0.03 0.03 0.02 0.02 0.02 0.02 0.02 0.03 0.05 0.05 0.06 0.05 0.03 0.01 0.01 0.01 0.01 0.01 0.01 0.01 0.01 0.01 0.01 0.00 0.00 0.00 0.00 0.00 0.00 0.00 0.00 0.00 0.01
0.03 0.03 0.04 0.04 0.05 0.05 0.05 0.05 0.04 0.03 0.03 0.02 0.02 0.02 0.02 0.02 0.02 0.02 0.03 0.05 0.05 0.06 0.03 0.01 0.01 0.01 0.00 0.00 0.00 0.01 0.01 0.02 0.01 0.01 0.00 0.01 0.01 0.01 0.01 0.00 0.00 0.00 0.00
MSLP
1019.29 1019.40 1019.45 1019.46 1019.43 1019.38 1019.34 1019.31 1019.30 1019.30 1019.31 1019.32 1019.31 1019.29 1019.26 1019.22 1019.20 1019.21 1019.23 1019.28 1019.35 1019.41 1019.46 1019.49 1019.48 1019.45 1019.40 1019.33 1019.27 1019.20 1019.15 1019.10 1019.05 1019.00 1018.93 1018.85 1018.75 1018.63 1018.49 1018.34 1018.17 1017.98 1017.78
1018.88 1018.99 1019.07 1019.11 1019.13 1019.13 1019.13 1019.15 1019.17 1019.21 1019.23 1019.25 1019.24 1019.21 1019.17 1019.12 1019.09 1019.08 1019.10 1019.15 1019.23 1019.31 1019.38 1019.44 1019.46 1019.45 1019.41 1019.35 1019.27 1019.19 1019.12 1019.06 1019.00 1018.94 1018.88 1018.81 1018.73 1018.62 1018.50 1018.35 1018.18 1017.99 1017.78
1018.39 1018.52 1018.63 1018.73 1018.80 1018.87 1018.94 1019.02 1019.09 1019.15 1019.19 1019.20 1019.19 1019.14 1019.07 1019.00 1018.94 1018.90 1018.90 1018.94 1019.02 1019.11 1019.20 1019.29 1019.34 1019.36 1019.34 1019.28 1019.21 1019.13 1019.05 1018.97 1018.90 1018.84 1018.78 1018.72 1018.64 1018.54 1018.42 1018.27 1018.10 1017.91 1017.71
1017.87 1018.03 1018.18 1018.34 1018.49 1018.64 1018.78 1018.90 1019.01 1019.10 1019.14 1019.15 1019.11 1019.04 1018.94 1018.83 1018.73 1018.66 1018.64 1018.66 1018.72 1018.81 1018.92 1019.02 1019.10 1019.15 1019.16 1019.14 1019.08 1019.01 1018.93 1018.85 1018.77 1018.71 1018.64 1018.57 1018.48 1018.38 1018.25 1018.10 1017.92 1017.73 1017.53
1017.36 1017.55 1017.75 1017.97 1018.19 1018.41 1018.61 1018.78 1018.92 1019.02 1019.06 1019.06 1018.99 1018.89 1018.76 1018.62 1018.48 1018.38 1018.32 1018.32 1018.36 1018.45 1018.56 1018.67 1018.78 1018.85 1018.89 1018.90 1018.87 1018.82 1018.75 1018.68 1018.61 1018.53 1018.46 1018.37 1018.27 1018.15 1018.01 1017.84 1017.66 1017.47 1017.27
1016.87 1017.08 1017.33 1017.61 1017.89 1018.16 1018.41 1018.62 1018.78 1018.88 1018.91 1018.89 1018.81 1018.69 1018.53 1018.37 1018.22 1018.09 1018.01 1017.97 1017.99 1018.06 1018.16 1018.27 1018.39 1018.48 1018.55 1018.59 1018.59 1018.57 1018.52 1018.47 1018.40 1018.32 1018.24 1018.14 1018.02 1017.88 1017.71 1017.53 1017.34 1017.13 1016.93
1016.40 1016.63 1016.91 1017.22 1017.55 1017.86 1018.14 1018.38 1018.54 1018.64 1018.68 1018.65 1018.57 1018.44 1018.29 1018.13 1017.98 1017.84 1017.74 1017.68 1017.67 1017.71 1017.78 1017.87 1017.98 1018.08 1018.16 1018.22 1018.25 1018.26 1018.25 1018.21 1018.16 1018.08 1017.99 1017.88 1017.74 1017.58 1017.39 1017.19 1016.98 1016.77 1016.56
1015.92 1016.16 1016.46 1016.79 1017.14 1017.48 1017.78 1018.03 1018.21 1018.31 1018.36 1018.34 1018.28 1018.18 1018.07 1017.93 1017.80 1017.67 1017.57 1017.49 1017.45 1017.44 1017.47 1017.52 1017.59 1017.67 1017.75 1017.82 1017.88 1017.91 1017.93 1017.92 1017.88 1017.82 1017.73 1017.61 1017.45 1017.27 1017.06 1016.84 1016.62 1016.39 1016.18
1015.40 1015.63 1015.93 1016.28 1016.64 1016.99 1017.31 1017.57 1017.76 1017.89 1017.97 1017.99 1017.98 1017.94 1017.88 1017.80 1017.71 1017.61 1017.51 1017.42 1017.34 1017.28 1017.24 1017.24 1017.26 1017.30 1017.36 1017.42 1017.49 1017.54 1017.58 1017.60 1017.58 1017.53 1017.45 1017.33 1017.16 1016.97 1016.75 1016.51 1016.27 1016.04 1015.82
1014.83 1015.04 1015.33 1015.67 1016.03 1016.39 1016.72 1017.00 1017.23 1017.40 1017.52 1017.61 1017.67 1017.70 1017.72 1017.71 1017.68 1017.62 1017.53 1017.43 1017.31 1017.20 1017.10 1017.02 1016.98 1016.98 1017.00 1017.04 1017.10 1017.16 1017.22 1017.26 1017.26 1017.23 1017.16 1017.04 1016.88 1016.68 1016.45 1016.20 1015.95 1015.71 1015.48
1014.20 1014.38 1014.65 1014.97 1015.33 1015.70 1016.05 1016.35 1016.62 1016.84 1017.03 1017.19 1017.33 1017.46 1017.56 1017.63 1017.66 1017.64 1017.57 1017.46 1017.32 1017.16 1017.00 1016.86 1016.76 1016.69 1016.67 1016.69 1016.74 1016.80 1016.86 1016.91 1016.93 1016.92 1016.85 1016.74 1016.58 1016.38 1016.15 1015.90 1015.64 1015.38 1015.14
1013.53 1013.67 1013.91 1014.22 1014.57 1014.94 1015.31 1015.65 1015.95 1016.23 1016.49 1016.72 1016.95 1017.16 1017.34 1017.48 1017.57 1017.59 1017.55 1017.44 1017.28 1017.09 1016.90 1016.71 1016.56 1016.45 1016.39 1016.38 1016.41 1016.46 1016.52 1016.57 1016.59 1016.58 1016.53 1016.42 1016.26 1016.06 1015.83 1015.57 1015.31 1015.05 1014.80
1012.84 1012.94 1013.15 1013.44 1013.78 1014.16 1014.53 1014.90 1015.25 1015.57 1015.88 1016.18 1016.47 1016.75 1016.99 1017.20 1017.34 1017.40 1017.38 1017.30 1017.14 1016.95 1016.74 1016.53 1016.36 1016.22 1016.14 1016.11 1016.11 1016.14 1016.19 1016.23 1016.25 1016.23 1016.17 1016.06 1015.90 1015.70 1015.47 1015.21 1014.94 1014.67 1014.41
1012.18 1012.23 1012.41 1012.67 1013.00 1013.37 1013.75 1014.13 1014.50 1014.86 1015.21 1015.55 1015.89 1016.21 1016.50 1016.74 1016.92 1017.02 1017.04 1016.98 1016.86 1016.69 1016.50 1016.31 1016.14 1016.00 1015.91 1015.86 1015.85 1015.86 1015.88 1015.89 1015.88 1015.84 1015.77 1015.65 1015.48 1015.28 1015.04 1014.78 1014.51 1014.23 1013.95
1011.57 1011.58 1011.72 1011.95 1012.26 1012.61 1012.98 1013.36 1013.74 1014.11 1014.47 1014.83 1015.19 1015.52 1015.83 1016.10 1016.31 1016.45 1016.51 1016.50 1016.43 1016.31 1016.17 1016.02 1015.88 1015.77 1015.69 1015.64 1015.60 1015.59 1015.57 1015.54 1015.50 1015.42 1015.32 1015.18 1015.00 1014.79 1014.55 1014.28 1014.01 1013.72 1013.43
1011.05 1011.02 1011.11 1011.30 1011.57 1011.89 1012.24 1012.60 1012.97 1013.33 1013.69 1014.04 1014.39 1014.73 1015.05 1015.33 1015.56 1015.73 1015.84 1015.88 1015.87 1015.82 1015.75 1015.66 1015.58 1015.51 1015.45 1015.40 1015.35 1015.30 1015.24 1015.17 1015.08 1014.96 1014.82 1014.64 1014.45 1014.22 1013.98 1013.71 1013.43 1013.14 1012.84
1010.63 1010.56 1010.60 1010.74 1010.96 1011.24 1011.55 1011.87 1012.21 1012.54 1012.88 1013.22 1013.56 1013.89 1014.20 1014.49 1014.73 1014.93 1015.08 1015.17 1015.23 1015.25 1015.25 1015.23 1015.21 1015.18 1015.15 1015.10 1015.05 1014.97 1014.87 1014.75 1014.61 1014.45 1014.26 1014.06 1013.84 1013.60 1013.34 1013.07 1012.79 1012.49 1012.19
1010.34 1010.21 1010.19 1010.27 1010.43 1010.65 1010.90 1011.18 1011.48 1011.79 1012.10 1012.42 1012.74 1013.06 1013.37 1013.65 1013.91 1014.12 1014.30 1014.43 1014.54 1014.62 1014.67 1014.72 1014.74 1014.76 1014.75 1014.71 1014.65 1014.56 1014.43 1014.28 1014.09 1013.89 1013.67 1013.44 1013.19 1012.94 1012.67 1012.39 1012.10 1011.81 1011.50
1010.16 1009.96 1009.87 1009.88 1009.97 1010.12 1010.31 1010.54 1010.80 1011.08 1011.37 1011.67 1011.98 1012.29 1012.59 1012.87 1013.13 1013.35 1013.53 1013.69 1013.82 1013.93 1014.02 1014.10 1014.16 1014.20 1014.21 1014.19 1014.13 1014.03 1013.90 1013.72 1013.52 1013.29 1013.05 1012.79 1012.53 1012.26 1011.98 1011.70 1011.40 1011.09 1010.78
1010.09 1009.82 1009.65 1009.58 1009.58 1009.66 1009.79 1009.96 1010.18 1010.42 1010.70 1010.99 1011.30 1011.60 1011.90 1012.17 1012.41 1012.62 1012.79 1012.94 1013.06 1013.17 1013.26 1013.35 1013.42 1013.48 1013.51 1013.51 1013.47 1013.39 1013.26 1013.09 1012.89 1012.66 1012.42 1012.15 1011.88 1011.59 1011.30 1010.99 1010.68 1010.36 1010.03
1010.10 1009.76 1009.51 1009.35 1009.27 1009.26 1009.32 1009.44 1009.61 1009.83 1010.09 1010.38 1010.67 1010.97 1011.26 1011.51 1011.73 1011.91 1012.05 1012.16 1012.24 1012.32 1012.39 1012.46 1012.53 1012.60 1012.65 1012.68 1012.67 1012.62 1012.54 1012.41 1012.23 1012.03 1011.79 1011.53 1011.25 1010.95 1010.63 1010.30 1009.96 1009.61 1009.26
1010.19 1009.77 1009.44 1009.19 1009.03 1008.94 1008.92 1008.98 1009.11 1009.29 1009.53 1009.80 1010.09 1010.38 1010.65 1010.88 1011.06 1011.20 1011.28 1011.33 1011.36 1011.38 1011.41 1011.45 1011.51 1011.58 1011.65 1011.72 1011.77 1011.78 1011.75 1011.68 1011.57 1011.40 1011.19 1010.94 1010.65 1010.34 1009.99 1009.63 1009.25 1008.86 1008.46
1010.34 1009.85 1009.44 1009.11 1008.86 1008.68 1008.59 1008.58 1008.65 1008.80 1009.00 1009.25 1009.52 1009.79 1010.03 1010.23 1010.37 1010.45 1010.47 1010.46 1010.42 1010.38 1010.36 1010.37 1010.41 1010.49 1010.59 1010.71 1010.82 1010.91 1010.96 1010.97 1010.91 1010.80 1010.62 1010.39 1010.10 1009.76 1009.38 1008.97 1008.54 1008.10 1007.65
1010.51 1009.97 1009.50 1009.09 1008.76 1008.50 1008.33 1008.25 1008.25 1008.34 1008.50 1008.70 1008.94 1009.17 1009.37 1009.53 1009.62 1009.65 1009.62 1009.55 1009.46 1009.37 1009.31 1009.29 1009.33 1009.42 1009.56 1009.73 1009.90 1010.07 1010.20 1010.29 1010.30 1010.24 1010.10 1009.87 1009.58 1009.21 1008.78 1008.32 1007.83 1007.33 1006.83
1010.69 1010.12 1009.60 1009.14 1008.74 1008.41 1008.15 1007.99 1007.92 1007.93 1008.02 1008.17 1008.35 1008.53 1008.69 1008.80 1008.86 1008.84 1008.78 1008.67 1008.54 1008.42 1008.34 1008.32 1008.36 1008.47 1008.64 1008.85 1009.09 1009.32 1009.52 1009.66 1009.73 1009.71 1009.59 1009.38 1009.06 1008.67 1008.20 1007.68 1007.12 1006.56 1006.00
1010.85 1010.27 1009.73 1009.23 1008.78 1008.38 1008.06 1007.81 1007.65 1007.58 1007.59 1007.66 1007.77 1007.89 1008.00 1008.08 1008.10 1008.07 1007.98 1007.86 1007.73 1007.62 1007.54 1007.52 1007.57 1007.70 1007.89 1008.14 1008.41 1008.67 1008.91 1009.10 1009.19 1009.19 1009.09 1008.87 1008.54 1008.11 1007.60 1007.03 1006.42 1005.79 1005.17
Thickness
5665 5665 5664 5663 5663 5663 5662 5661 5661 5661 5661 5662 5662 5662 5661 5661 5660 5659 5659 5659 5659 5659 5658 5657 5655 5653 5652 5649 5647 5646 5644 5642 5640 5638 5636 5635 5633 5631 5630 5628 5626 5625 5624
5657 5657 5656 5655 5655 5655 5655 5654 5654 5653 5654 5655 5655 5655 5655 5654 5654 5653 5653 5653 5652 5652 5651 5650 5648 5647 5645 5643 5641 5639 5637 5635 5633 5631 5630 5628 5626 5624 5622 5621 5619 5618 5617
5648 5648 5648 5647 5648 5648 5647 5647 5647 5646 5646 5647 5648 5648 5648 5647 5647 5646 5646 5646 5645 5645 5644 5643 5641 5640 5638 5636 5634 5632 5630 5628 5626 5624 5622 5621 5619 5617 5615 5613 5612 5611 5610
5639 5640 5640 5640 5640 5640 5640 5639 5639 5639 5639 5639 5640 5640 5641 5640 5640 5639 5639 5639 5638 5638 5637 5635 5634 5632 5630 5628 5626 5624 5622 5620 5618 5617 5615 5613 5611 5610 5608 5606 5605 5604 5603
5631 5631 5632 5633 5633 5633 5632 5632 5631 5631 5631 5632 5632 5633 5633 5633 5633 5633 5633 5632 5632 5631 5629 5628 5626 5624 5622 5621 5619 5617 5615 5613 5611 5609 5607 5606 5604 5602 5600 5599 5597 5596 5595
5622 5623 5624 5624 5625 5626 5625 5625 5624 5624 5624 5624 5626 5626 5625 5626 5626 5626 5626 5626 5625 5624 5622 5620 5618 5616 5614 5612 5611 5609 5607 5605 5603 5601 5599 5598 5596 5594 5593 5591 5590 5589 5588
5613 5614 5616 5616 5618 5618 5619 5619 5618 5616 5615 5616 5616 5616 5616 5617 5618 5619 5619 5619 5618 5617 5615 5613 5611 5609 5606 5604 5602 5601 5599 5597 5596 5594 5592 5590 5588 5586 5585 5583 5582 5581 5579
5605 5607 5609 5610 5610 5611 5611 5611 5611 5609 5608 5609 5609 5608 5607 5609 5611 5612 5612 5611 5611 5609 5608 5606 5604 5601 5599 5596 5594 5592 5591 5590 5588 5586 5584 5582 5580 5579 5577 5575 5574 5572 5571
5597 5600 5601 5602 5603 5603 5604 5605 5605 5604 5602 5601 5604 5604 5602 5603 5602 5604 5604 5604 5603 5602 5601 5598 5596 5594 5591 5589 5586 5584 5582 5581 5580 5578 5576 5574 5572 5570 5569 5567 5565 5563 5562
5589 5591 5592 5594 5595 5596 5597 5598 5599 5599 5598 5596 5596 5598 5598 5598 5595 5595 5595 5595 5595 5594 5592 5591 5588 5586 5583 5581 5578 5576 5574 5572 5571 5569 5568 5566 5564 5562 5560 5558 5556 5554 5552
5579 5581 5583 5585 5587 5589 5590 5591 5591 5592 5593 5593 5592 5591 5590 5589 5588 5587 5587 5586 5586 5586 5584 5582 5580 5578 5575 5572 5569 5567 5565 5563 5562 5560 5558 5556 5554 5553 5551 5549 5546 5544 5542
5569 5572 5574 5577 5579 5581 5583 5584 5585 5586 5587 5587 5586 5585 5585 5584 5583 5580 5579 5578 5576 5576 5576 5574 5572 5569 5566 5563 5560 5558 5556 5554 5553 5551 5549 5547 5545 5543 5541 5539 5537 5535 5533
5560 5563 5566 5568 5571 5573 5574 5576 5577 5578 5579 5579 5579 5578 5579 5580 5579 5576 5573 5569 5567 5566 5566 5565 5563 5561 5558 5555 5552 5550 5548 5546 5544 5542 5540 5537 5535 5533 5531 5529 5527 5525 5523
5552 5554 5557 5560 5562 5565 5566 5567 5568 5570 5571 5571 5572 5572 5572 5572 5571 5570 5567 5563 5559 5557 5555 5555 5554 5552 5550 5547 5544 5541 5539 5537 5535 5533 5530 5528 5526 5524 5522 5520 5517 5515 5512
5542 5545 5548 5551 5553 5556 5557 5558 5560 5561 5563 5563 5563 5564 5564 5564 5564 5563 5561 5558 5554 5550 5548 5547 5545 5543 5541 5538 5535 5533 5531 5528 5526 5524 5522 5519 5517 5514 5512 5510 5507 5504 5502
5533 5536 5539 5541 5544 5546 5548 5549 5550 5553 5554 5555 5554 5554 5556 5557 5557 5554 5552 5550 5549 5545 5541 5539 5537 5535 5532 5530 5527 5524 5522 5519 5517 5515 5513 5510 5507 5505 5503 5500 5497 5495 5493
5524 5527 5529 5532 5535 5537 5539 5541 5542 5544 5546 5546 5546 5546 5548 5548 5548 5546 5544 5542 5540 5538 5534 5531 5528 5526 5523 5521 5519 5516 5513 5511 5508 5506 5504 5501 5498 5496 5494 5492 5489 5486 5484
5514 5517 5519 5522 5525 5529 5531 5532 5534 5536 5538 5539 5540 5539 5539 5540 5539 5538 5536 5534 5532 5530 5527 5524 5521 5518 5516 5514 5512 5509 5506 5503 5501 5498 5496 5493 5491 5488 5486 5483 5480 5477 5475
5504 5507 5510 5513 5517 5520 5522 5524 5526 5528 5529 5531 5531 5531 5532 5532 5530 5529 5528 5526 5524 5522 5520 5516 5513 5510 5508 5505 5503 5500 5498 5495 5493 5491 5489 5486 5483 5480 5478 5475 5472 5469 5467
5494 5497 5501 5504 5508 5512 5515 5517 5518 5519 5520 5522 5522 5523 5524 5523 5522 5521 5520 5519 5517 5514 5511 5508 5506 5503 5501 5497 5494 5492 5490 5487 5485 5483 5481 5478 5476 5473 5470 5467 5464 5461 5458
5483 5487 5491 5494 5498 5502 5506 5509 5510 5510 5511 5513 5514 5515 5515 5515 5515 5514 5514 5512 5510 5507 5504 5501 5499 5496 5493 5490 5487 5485 5482 5480 5478 5475 5473 5471 5468 5466 5462 5459 5456 5454 5451
5473 5477 5481 5485 5489 5494 5497 5499 5501 5501 5502 5504 5504 5506 5506 5506 5506 5506 5506 5505 5504 5501 5498 5495 5492 5490 5488 5484 5482 5479 5475 5473 5472 5469 5465 5464 5461 5458 5455 5453 5450 5448 5445
5463 5468 5471 5475 5479 5483 5487 5490 5491 5492 5493 5494 5495 5496 5497 5498 5497 5497 5497 5496 5495 5494 5493 5490 5487 5485 5482 5479 5476 5472 5469 5466 5464 5461 5458 5457 5454 5452 5450 5447 5445 5442 5440
5454 5458 5462 5466 5469 5473 5477 5480 5482 5483 5485 5486 5487 5488 5489 5489 5489 5489 5488 5487 5486 5485 5484 5483 5482 5480 5477 5473 5470 5466 5462 5459 5456 5453 5450 5449 5448 5445 5444 5442 5439 5437 5434
5445 5449 5453 5457 5460 5463 5467 5470 5473 5475 5476 5477 5479 5480 5481 5481 5481 5481 5480 5479 5477 5476 5475 5475 5474 5472 5470 5467 5463 5459 5455 5452 5450 5447 5443 5441 5439 5438 5438 5437 5434 5431 5429
5437 5441 5444 5448 5451 5454 5458 5461 5464 5467 5468 5469 5470 5471 5472 5473 5473 5473 5472 5471 5469 5468 5467 5466 5464 5463 5461 5459 5456 5453 5450 5446 5443 5440 5438 5434 5432 5430 5431 5431 5428 5425 5423